This is the latest recevied weather packets stored in our database for station/object N3WMC. If no packets are shown the sender has not sent any weather packets the latest 1 day(s).
| Time | Temp. | Humidity | Pressure | Rain* | Wind** | Luminosity | Snow |
|---|---|---|---|---|---|---|---|
| 1778011342 | 22.78° C | 49% | 1008.6 hPa | 0 mm | 2.68 m/s, 294° | 139 W/m² | - |
| 1778011038 | 22.78° C | 49% | 1008.8 hPa | 0 mm | 1.34 m/s, 265° | 167 W/m² | - |
| 1778010736 | 22.78° C | 50% | 1008.8 hPa | 0 mm | 1.79 m/s, 339° | 138 W/m² | - |
| 1778010433 | 22.78° C | 49% | 1009 hPa | 0 mm | 3.58 m/s, 316° | 125 W/m² | - |
| 1778010129 | 22.78° C | 49% | 1008.9 hPa | 0 mm | 3.13 m/s, 289° | 134 W/m² | - |
| 1778009825 | 22.78° C | 49% | 1009.1 hPa | 0 mm | 2.24 m/s, 303° | 124 W/m² | - |
| 1778009522 | 22.78° C | 48% | 1009.1 hPa | 0 mm | 2.24 m/s, 298° | 96 W/m² | - |
| 1778009221 | 22.78° C | 48% | 1009 hPa | 0 mm | 1.34 m/s, 289° | 120 W/m² | - |
| 1778008918 | 22.78° C | 48% | 1009.3 hPa | 0 mm | 2.24 m/s, 348° | 92 W/m² | - |
| 1778008616 | 22.78° C | 47% | 1009.1 hPa | 0 mm | 2.24 m/s, 286° | 137 W/m² | - |
| 1778008314 | 22.78° C | 47% | 1008.9 hPa | 0 mm | 3.13 m/s, 302° | 119 W/m² | - |
| 1778008010 | 22.78° C | 47% | 1008.8 hPa | 0 mm | 2.24 m/s, 259° | 125 W/m² | - |
| 1778007709 | 22.78° C | 47% | 1009 hPa | 0 mm | 3.13 m/s, 300° | 108 W/m² | - |
| 1778007407 | 23.33° C | 47% | 1009 hPa | 0 mm | 2.24 m/s, 331° | 155 W/m² | - |
| 1778007103 | 23.33° C | 47% | 1008.7 hPa | 0 mm | 2.24 m/s, 286° | 184 W/m² | - |
| 1778006800 | 23.89° C | 46% | 1008.9 hPa | 0 mm | 1.79 m/s, 232° | 546 W/m² | - |
| 1778006497 | 23.33° C | 46% | 1008.9 hPa | 0 mm | 2.24 m/s, 290° | 243 W/m² | - |
| 1778006194 | 23.33° C | 46% | 1008.9 hPa | 0 mm | 2.68 m/s, 280° | 475 W/m² | - |
| 1778005891 | 23.89° C | 45% | 1009.3 hPa | 0 mm | 2.68 m/s, 336° | 657 W/m² | - |
| 1778005587 | 23.89° C | 46% | 1009 hPa | 0 mm | 2.24 m/s, 233° | 521 W/m² | - |
| 1778005284 | 23.89° C | 45% | 1009.3 hPa | 0 mm | 1.34 m/s, 347° | 527 W/m² | - |
| 1778004981 | 23.89° C | 47% | 1009.3 hPa | 0 mm | 2.68 m/s, 310° | 620 W/m² | - |
| 1778004678 | 23.33° C | 46% | 1009.1 hPa | 0 mm | 2.68 m/s, 321° | 661 W/m² | - |
| 1778004374 | 22.78° C | 49% | 1009.4 hPa | 0 mm | 1.79 m/s, 258° | 385 W/m² | - |
| 1778004071 | 22.22° C | 49% | 1009.5 hPa | 0 mm | 1.79 m/s, 257° | 219 W/m² | - |
* Rain latest hour (hover to see other rain measurements)
** Current wind speed in m/s (hover to see current wind gust speed)